Harvey, ND

3:10 PM CST on November 16, 2019 (GMT -0600)
Harvey

Weather History for K5H4 - October, 2019

Change the Weather History Date:

Wednesday, October 23, 2019

  Actual Average (KRUG) Record (KRUG)
Temperature  
Mean Temperature 32 °F -  
Max Temperature 41 °F 53 °F 78 °F (1963)
Min Temperature 23 °F 30 °F 14 °F (1976)
Degree Days  
Heating Degree Days 33    
Moisture  
Dew Point 23 °F    
Average Humidity 74    
Maximum Humidity 100    
Minimum Humidity 42    
Precipitation  
Precipitation 0.00 in - - ()
Sea Level Pressure  
Sea Level Pressure 30.04 in    
Wind  
Wind Speed 10 mph (NW)    
Max Wind Speed 22 mph    
Max Gust Speed 28 mph    
Visibility 10 miles    
Events      
Averages and records for this station are not official NWS values.
T = Trace of Precipitation, MM = Missing Value Source: NWS Daily Summary

Daily Weather History Graph

Daily Weather History Graph

Search for Another Location

Airport or City:

Astronomy

Oct. 23, 2019 Rise Set
Actual Time 8:10 AM CDT 6:37 PM CDT
Civil Twilight 7:38 AM CDT 7:08 PM CDT
Nautical Twilight 7:02 AM CDT 7:44 PM CDT
Astronomical Twilight 6:26 AM CDT 8:20 PM CDT
Moon 1:58 AM CDT (10/23) 4:57 PM CDT (10/23)
Length of Visible Light 11h 29m
Length of Day
10h 26m
Waning Crescent, 26% of the Moon is Illuminated
Oct 23
Waning Crescent
Oct 27
New
Nov 4
First Quarter
Nov 12
Full
Nov 19
Last Quarter

Hourly Weather History & Observations

Time (CDT) Temp. Windchill Dew Point Humidity Pressure Visibility Wind Dir Wind Speed Gust Speed Precip Events Conditions
12:15 AM 26.6 °F 20.0 °F 23.0 °F 86% 29.81 in 10.0 mi NW 5.8 mph - N/A   Clear
12:35 AM 24.8 °F 16.9 °F 23.0 °F 93% 29.81 in 10.0 mi NNW 6.9 mph - N/A   Clear
12:55 AM 24.8 °F 17.9 °F 21.2 °F 86% 29.81 in 10.0 mi NNW 5.8 mph - N/A   Clear
1:15 AM 24.8 °F 16.9 °F 23.0 °F 93% 29.81 in 10.0 mi North 6.9 mph - N/A   Clear
1:35 AM 24.8 °F 16.9 °F 23.0 °F 93% 29.82 in 10.0 mi North 6.9 mph - N/A   Clear
1:55 AM 26.6 °F 20.0 °F 23.0 °F 86% 29.83 in 10.0 mi North 5.8 mph - N/A   Clear
2:35 AM 24.8 °F 19.1 °F 23.0 °F 93% 29.84 in 10.0 mi NW 4.6 mph - N/A   Clear
2:55 AM 24.8 °F 16.1 °F 23.0 °F 93% 29.85 in 10.0 mi North 8.1 mph - N/A   Clear
3:15 AM 24.8 °F 17.9 °F 23.0 °F 93% 29.85 in 10.0 mi NNW 5.8 mph - N/A   Clear
3:35 AM 26.6 °F 20.0 °F 23.0 °F 86% 29.86 in 10.0 mi NW 5.8 mph - N/A   Clear
3:55 AM 24.8 °F 16.9 °F 23.0 °F 93% 29.86 in 10.0 mi NW 6.9 mph - N/A   Clear
4:15 AM 26.6 °F 19.1 °F 23.0 °F 86% 29.87 in 10.0 mi NNW 6.9 mph - N/A   Clear
4:35 AM 26.6 °F 21.2 °F 23.0 °F 86% 29.87 in 10.0 mi NW 4.6 mph - N/A   Clear
4:55 AM 24.8 °F 16.9 °F 23.0 °F 93% 29.88 in 10.0 mi NW 6.9 mph - N/A   Clear
5:15 AM 24.8 °F 16.9 °F 23.0 °F 93% 29.89 in 10.0 mi WNW 6.9 mph - N/A   Clear
5:35 AM 23.0 °F 13.1 °F 23.0 °F 100% 29.89 in 10.0 mi NW 9.2 mph - N/A   Clear
5:55 AM 24.8 °F 15.3 °F 23.0 °F 93% 29.90 in 10.0 mi NW 9.2 mph - N/A   Clear
6:15 AM 24.8 °F 16.1 °F 23.0 °F 93% 29.90 in 10.0 mi NW 8.1 mph - N/A   Clear
6:35 AM 24.8 °F 16.1 °F 23.0 °F 93% 29.91 in 10.0 mi NW 8.1 mph - N/A   Clear
6:55 AM 24.8 °F 15.3 °F 23.0 °F 93% 29.92 in 10.0 mi NW 9.2 mph - N/A   Clear
7:15 AM 23.0 °F 13.9 °F 23.0 °F 100% 29.94 in 10.0 mi NW 8.1 mph - N/A   Clear
7:35 AM 24.8 °F 14.6 °F 23.0 °F 93% 29.94 in 10.0 mi NW 10.4 mph - N/A   Clear
7:55 AM 23.0 °F 13.9 °F 21.2 °F 93% 29.95 in 10.0 mi NW 8.1 mph - N/A   Partly Cloudy
8:15 AM 23.0 °F 12.4 °F 23.0 °F 100% 29.96 in 10.0 mi NW 10.4 mph - N/A   Mostly Cloudy
8:35 AM 24.8 °F 15.3 °F 23.0 °F 93% 29.97 in 10.0 mi NW 9.2 mph - N/A   Mostly Cloudy
8:55 AM 24.8 °F 16.1 °F 23.0 °F 93% 29.98 in 10.0 mi NW 8.1 mph - N/A   Mostly Cloudy
9:15 AM 24.8 °F 14.6 °F 23.0 °F 93% 30.00 in 10.0 mi NW 10.4 mph - N/A   Scattered Clouds
9:35 AM 28.4 °F 19.1 °F 24.8 °F 86% 30.01 in 10.0 mi NW 10.4 mph - N/A   Mostly Cloudy
10:15 AM 30.2 °F 19.8 °F 24.8 °F 80% 30.02 in 10.0 mi NNW 13.8 mph - N/A   Partly Cloudy
10:35 AM 32.0 °F 22.1 °F 24.8 °F 75% 30.03 in 10.0 mi NNW 13.8 mph - N/A   Clear
10:55 AM 33.8 °F 24.3 °F 24.8 °F 70% 30.04 in 10.0 mi NNW 13.8 mph 21.9 mph N/A   Clear
11:35 AM 33.8 °F 23.2 °F 24.8 °F 70% 30.05 in 10.0 mi North 17.3 mph 24.2 mph N/A   Clear
11:55 AM 35.6 °F 25.2 °F 23.0 °F 60% 30.06 in 10.0 mi NNW 18.4 mph - N/A   Clear
12:15 PM 35.6 °F 25.5 °F 23.0 °F 60% 30.07 in 10.0 mi NNW 17.3 mph - N/A   Scattered Clouds
12:35 PM 35.6 °F 25.5 °F 23.0 °F 60% 30.07 in 10.0 mi NNW 17.3 mph 23.0 mph N/A   Partly Cloudy
12:55 PM 35.6 °F 25.5 °F 23.0 °F 60% 30.08 in 10.0 mi NNW 17.3 mph 25.3 mph N/A   Partly Cloudy
1:15 PM 35.6 °F 26.2 °F 23.0 °F 60% 30.08 in 10.0 mi NW 15.0 mph 24.2 mph N/A   Mostly Cloudy
1:35 PM 37.4 °F 27.2 °F 21.2 °F 52% 30.08 in 10.0 mi NNW 19.6 mph - N/A   Mostly Cloudy
1:55 PM 37.4 °F 27.8 °F 23.0 °F 56% 30.08 in 10.0 mi NNW 17.3 mph 24.2 mph N/A   Scattered Clouds
2:15 PM 39.2 °F 29.3 °F 19.4 °F 45% 30.07 in 10.0 mi NNW 20.7 mph 26.5 mph N/A   Partly Cloudy
2:35 PM 39.2 °F 29.8 °F 19.4 °F 45% 30.08 in 10.0 mi NNW 18.4 mph 26.5 mph N/A   Scattered Clouds
2:55 PM 41.0 °F 32.2 °F 21.2 °F 45% 30.08 in 10.0 mi North 18.4 mph 27.6 mph N/A   Scattered Clouds
3:15 PM 39.2 °F 30.2 °F 21.2 °F 49% 30.09 in 10.0 mi North 17.3 mph 27.6 mph N/A   Mostly Cloudy
3:35 PM 41.0 °F 31.4 °F 19.4 °F 42% 30.10 in 10.0 mi NNW 21.9 mph 27.6 mph N/A   Mostly Cloudy
3:55 PM 39.2 °F 29.8 °F 21.2 °F 49% 30.11 in 10.0 mi NNW 18.4 mph 24.2 mph N/A   Mostly Cloudy
4:15 PM 39.2 °F 31.2 °F 21.2 °F 49% 30.11 in 10.0 mi NNW 13.8 mph 25.3 mph N/A   Mostly Cloudy
4:35 PM 39.2 °F 29.6 °F 21.2 °F 49% 30.12 in 10.0 mi NNW 19.6 mph - N/A   Scattered Clouds
4:55 PM 39.2 °F 29.8 °F 21.2 °F 49% 30.13 in 10.0 mi NNW 18.4 mph - N/A   Scattered Clouds
5:15 PM 39.2 °F 30.8 °F 21.2 °F 49% 30.14 in 10.0 mi NNW 15.0 mph - N/A   Mostly Cloudy
5:35 PM 39.2 °F 30.2 °F 23.0 °F 52% 30.14 in 10.0 mi NW 17.3 mph - N/A   Overcast
5:55 PM 39.2 °F 31.6 °F 23.0 °F 52% 30.15 in 10.0 mi NNW 12.7 mph 19.6 mph N/A   Overcast
6:15 PM 39.2 °F 32.5 °F 24.8 °F 56% 30.15 in 10.0 mi NW 10.4 mph - N/A   Overcast
6:35 PM 37.4 °F 31.4 °F 24.8 °F 60% 30.16 in 10.0 mi NW 8.1 mph - N/A   Overcast
6:55 PM 37.4 °F 31.4 °F 24.8 °F 60% 30.16 in 8.0 mi West 8.1 mph - N/A   Overcast
7:15 PM 37.4 °F 31.4 °F 24.8 °F 60% 30.17 in 7.0 mi West 8.1 mph - N/A   Overcast
7:35 PM 37.4 °F 32.1 °F 26.6 °F 65% 30.18 in 10.0 mi West 6.9 mph - N/A   Overcast
7:55 PM 35.6 °F 29.9 °F 26.6 °F 70% 30.18 in 10.0 mi WSW 6.9 mph - N/A   Overcast
8:15 PM 35.6 °F 29.9 °F 26.6 °F 70% 30.19 in 10.0 mi West 6.9 mph - N/A   Overcast
8:35 PM 35.6 °F 24.8 °F 23.0 °F 60% 30.20 in 10.0 mi NNW 19.6 mph - N/A   Scattered Clouds
8:55 PM 33.8 °F 24.8 °F 23.0 °F 65% 30.21 in 10.0 mi NNW 12.7 mph - N/A   Scattered Clouds
9:15 PM 33.8 °F 25.3 °F 23.0 °F 65% 30.21 in 10.0 mi NW 11.5 mph - N/A   Partly Cloudy
9:35 PM 32.0 °F 23.0 °F 23.0 °F 69% 30.21 in 10.0 mi NW 11.5 mph - N/A   Clear
9:55 PM 30.2 °F 21.3 °F 23.0 °F 75% 30.22 in 10.0 mi NW 10.4 mph - N/A   Clear
10:15 PM 28.4 °F 19.7 °F 23.0 °F 80% 30.23 in 10.0 mi NW 9.2 mph - N/A   Clear
10:35 PM 28.4 °F 20.4 °F 23.0 °F 80% 30.24 in 10.0 mi NW 8.1 mph - N/A   Clear
10:55 PM 26.6 °F 20.0 °F 23.0 °F 86% 30.24 in 10.0 mi WNW 5.8 mph - N/A   Clear
11:15 PM 26.6 °F 18.2 °F 23.0 °F 86% 30.25 in 10.0 mi West 8.1 mph - N/A   Clear
11:35 PM 26.6 °F 19.1 °F 23.0 °F 86% 30.25 in 10.0 mi West 6.9 mph - N/A   Clear
11:55 PM 26.6 °F 18.2 °F 21.2 °F 80% 30.25 in 10.0 mi West 8.1 mph - N/A   Clear